Regional Weather Roundup
Issued by NWS

Home | Current Version | Previous Version | Text Only | Print | Product List | Glossary Off
Versions: 1 2 3 4 5 6 7 8 9 10 11 12 13 14 15 16 17 18 19 20 21 22 23 24 25 26 27 28 29 30 31 32 33 34 35 36 37 38 39 40 41 42 43 44 45 46 47 48 49 50

000
ASUS43 KDMX 051401
RWRIA

WEATHER ROUNDUP FOR IOWA
NATIONAL WEATHER SERVICE DES MOINES IA
800 AM CST MON DEC 05 2016

NOTE: "FAIR" INDICATES FEW OR NO CLOUDS BELOW 12,000 FEET WITH NO
SIGNIFICANT WEATHER AND/OR OBSTRUCTIONS TO VISIBILITY.

* - THESE STATIONS ARE NOT NWS STATIONS...THUS NOT UNDER NWS
QUALITY CONTROL.  THEY ALSO DO NOT REPORT WEATHER SUCH
AS PRECIPITATION OR FOG.

IAZ001>003-012>014-020>022-031>034-043>046-051500-
   NORTHWEST IOWA

CITY           SKY/WX    TMP DP  RH WIND       PRES   REMARKS
CARROLL *      CLOUDY    36  34  93 S12       29.77R WCI  27
CHEROKEE *     CLOUDY    36  32  85 S12       29.69S WCI  28
DENISON *      CLOUDY    36  32  87 S15       29.72S WCI  26
LE MARS *      CLOUDY    37  30  75 S13       29.66F WCI  29
ORANGE CITY *  CLOUDY    36  32  87 S10       29.64F WCI  28
SHELDON *      CLOUDY    36  32  87 S13G18    29.63F WCI  27
SIOUX CITY     CLOUDY    40  30  67 S14G21    29.67F WCI  32
SPENCER        CLOUDY    35  31  85 S18       29.68F WCI  24
STORM LAKE *   CLOUDY    34  30  86 S15       29.70F WCI  24
$$

IAZ055>058-069>071-079>083-090>094-051500-
   SOUTHWEST IOWA

CITY           SKY/WX    TMP DP  RH WIND       PRES   REMARKS
ATLANTIC *     PTCLDY    36  32  87 S16       29.79F WCI  26
AUDUBON *      MOCLDY    36  30  80 S9        29.78S WCI  29
CLARINDA *       N/A     34  32  93 S8        29.85F WCI  27
COUNCIL BLFS * PTCLDY    34  30  86 S15       29.76F WCI  24
CRESTON *      PTCLDY    32  32 100 S14       29.85S WCI  22
HARLAN  *      MOCLDY    36  32  87 S9        29.80F WCI  29
LAMONI         FOG       31  30  96 S9        29.88S VSB 1/2 WCI  23
RED OAK *      CLEAR     34  32  93 S8        29.82F WCI  27
SHENANDOAH *   CLEAR     34  32  93 S16       29.81F WCI  23
$$

IAZ047>049-059>061-072>074-084-051500-
   CENTRAL IOWA

CITY           SKY/WX    TMP DP  RH WIND       PRES   REMARKS
AMES           CLOUDY    31  31 100 SE9       29.84S FOG     WCI  23
ANKENY *       CLOUDY    32 N/A N/A S8        29.86F FOG     WCI  25
BOONE *        CLOUDY    32  32 100 S13       29.80F WCI  22
CHARITON *       N/A     32  32 100 S14       29.88F FOG     WCI  22
DES MOINES     CLOUDY    33  32  96 S9        29.85F FOG     WCI  25
GRINNELL*      SNOW      32  32  99 SE9       29.88S VSB<1/4 WCI  24
KNOXVILLE *    CLOUDY    32  32 100 S10       29.87S FOG     WCI  24
MARSHALLTOWN   FOG       32  32 100 S10       29.86R VSB 1/4 WCI  24
NEWTON *       FOG       32  32 100 S13       29.86S VSB<1/4 WCI  22
PELLA *        FOG       32  32  99 S9        29.90S VSB 1/4 WCI  24
PERRY *        CLOUDY    33  33  99 SE12      29.80F WCI  25
$$

IAZ004>006-015-016-023>025-035-036-051500-
   NORTH CENTRAL IOWA

CITY           SKY/WX    TMP DP  RH WIND       PRES   REMARKS
ALGONA *       CLOUDY    34  32  93 SE16G22   29.74F WCI  23
CLARION *      CLOUDY    32  32 100 SE15      29.78F WCI  22
ESTHERVILLE    CLOUDY    33  32  96 S16       29.69F WCI  23
FORT DODGE *   CLOUDY    36  28  75 S7        29.78F WCI  30
MASON CITY     CLOUDY    30  29  96 SE10      29.82S WCI  21
WEBSTER CITY * CLOUDY    32  32 100 SE12      29.78F WCI  23
IOWA FALLS *   FOG       32  31  97 SE8       29.84F VSB 1   WCI  24
$$

IAZ007>011-017>019-026>030-037>042-050>054-066-051500-
   NORTHEAST IOWA

CITY           SKY/WX    TMP DP  RH WIND       PRES   REMARKS
CEDAR RAPIDS   FOG       31  31 100 SE10      29.91S VSB 1/4 WCI  22
CHARLES CITY * FOG       32  32 100 S12       29.85S VSB<1/4 WCI  23
CLINTON *      FOG       32  31  96 S9        29.98R VSB 1/2 WCI  24
DECORAH *      FOG       30  30 100 SE12      29.85F VSB 1/4 WCI  21
DUBUQUE        SNOW      31  31 100 S12       29.93S VSB<1/4 WCI  22
MONTICELLO *   FOG       32  32 100 SE9       29.92F VSB<1/4 WCI  24
OELWEIN *      FOG       32  32 100 S12       29.88F VSB<1/4 WCI  23
WATERLOO       FOG       32  31  96 S10       29.88R VSB 1/2 WCI  24
$$

IAZ064-065-067-068-078-051500-
   EAST CENTRAL IOWA

CITY           SKY/WX    TMP DP  RH WIND       PRES   REMARKS
DAVENPORT      FOG       31  30  96 S10       29.97S VSB 1/4 WCI  22
IOWA CITY      FOG       32  31  96 SE13      29.95F VSB 1/4 WCI  22
MUSCATINE *    FOG       32  32 100 SE7G13    29.97S VSB<1/4 WCI  26
QUAD CITIES    FOG       32  30  92 S9        29.98R VSB 1/2 WCI  24
$$

IAZ062-063-075>077-085>089-095>099-051500-
   SOUTHEAST IOWA

CITY           SKY/WX    TMP DP  RH WIND       PRES   REMARKS
BURLINGTON     FOG       31  31 100 S7        29.98R VSB 1/4 WCI  24
FAIRFIELD *    FOG       32  30  93 SE10      29.92F VSB<1/4 WCI  24
FORT MADISON * FOG       30  30 100 S10       29.99R VSB<1/4 WCI  21
KEOKUK *       FOG       32  32 100 S9        29.99R VSB<1/4 WCI  24
OSKALOOSA *    SNOW      31  31  99 S10       29.91S VSB<1/4 WCI  23
CENTERVILLE *  CLOUDY    30  30 100 S9        29.93S FOG     WCI  22
OTTUMWA        FOG       32  31  96 S8        29.91S VSB<1/4 WCI  25
WASHINGTON *   FOG       30  30 100 SE14      29.94S VSB<1/4 WCI  20
$$

ABBREVIATIONS USED IN REMARKS
   TC - TEMPERATURES IN CELSIUS
  WCI - WIND CHILL INDEX
   HX - HEAT INDEX
  VSB - VISIBILITY
$$





USA.gov is the U.S. government's official web portal to all federal, state and local government web resources and services.